Location: Unspecified
(0.0000°N, 0.0000°E)
Time: 18:41:08
(UTC+00:00)

Hubble Space Telescope - Pass Details

Date: 06 November 2025
Orbit: 482 x 485 km, 28.5° (Epoch: 06 November)

Event Time Altitude Azimuth Distance (km) Brightness Sun altitude
Rises 18:11:26 0° 320° (NW) 2,517 4.5 -6.7°
Reaches altitude 10° 18:13:56 10° 334° (NNW) 1,640 3.4 -7.3°
Maximum altitude 18:17:02 24° 29° (NNE) 1,031 1.8 -8.0°
Enters shadow 18:19:55 11° 83° (E) 1,578 2.5 -8.7°
